Location: Habrov?ice
(49.6737°N, 15.2091°E)
Time: 11:52:10
(UTC+00:00)

Daily predictions for brighter satellites

Satellite Brightness Start Highest point End
(mag) Time Altitude Azimuth Time Altitude Azimuth Time Altitude Azimuth
BREEZE-M DEB (TANK) 3.4 18:30:07 10° WSW 18:33:38 70° SSE 18:45:12 10° ENE
COSMOS 2487 2.8 18:31:42 10° SSW 18:35:05 67° WNW 18:38:30 10° NNE
Cosmos 1092 Rocket 4.1 18:29:12 10° N 18:35:30 88° E 18:41:42 10° S
SPOT 3 Rocket 4.4 18:32:05 10° SE 18:36:41 33° ENE 18:41:17 10° N
FALCON 9 DEB 3.2 18:34:39 10° SW 18:38:01 58° SSE 18:41:25 10° ENE
BREEZE-M DEB (TANK) 1.5 18:36:04 10° W 18:38:50 83° S 18:41:07 10° E
USA 215 3.8 18:33:08 10° E 18:39:31 57° NNE 18:45:54 10° WNW
RESURS DK-1 2.3 18:35:28 10° SSW 18:39:34 69° ESE 18:43:42 10° NE
Cosmos 1992 Rocket 4.5 18:36:11 10° NNW 18:41:21 65° WSW 18:46:30 10° S
Helios 1A Rocket 4.1 18:39:15 10° S 18:43:11 45° W 18:47:10 10° NNW
Resurs 01 Rocket 2.3 18:45:46 10° SE 18:49:54 38° ENE 18:54:02 10° N
Cosmos 1689 Rocket 4.4 18:48:13 10° N 18:50:44 28° WNW 18:53:13 10° SW
BREEZE-M DEB (TANK) 3.9 18:49:25 10° WSW 18:53:35 88° SSE 19:09:56 10° ENE
Resurs 1-3 3.6 18:49:42 10° SSE 18:54:03 66° ENE 18:58:25 10° N
Cosmos 405 Rocket 2.8 18:50:20 10° N 18:54:20 68° ENE 18:58:15 10° SSE
Cosmos 2237 Rocket 2.3 18:51:53 10° NNW 18:57:32 67° ENE 19:03:02 11° SE
Cosmos 1408 4.1 18:54:24 10° NNW 18:57:43 37° W 19:01:01 10° SSW
Cosmos 2058 3.2 18:56:27 10° NNW 19:00:38 70° W 19:04:45 10° S
Cosmos 407 Rocket 4.0 18:59:42 10° SSE 19:04:22 36° ESE 19:09:05 10° NE
Exosat Rocket 4.3 19:02:27 10° NNW 19:08:50 60° WSW 19:13:52 10° S
Cosmos 1356 3.4 19:05:31 10° NNW 19:08:57 84° W 19:12:22 10° S
Cosmos 2279 Rocket 4.0 19:03:43 10° S 19:09:49 66° E 19:15:58 10° NNE
OBJECT-B 2.1 19:07:27 10° S 19:10:32 40° W 19:13:38 10° NNW
FALCON 9 DEB 4.4 19:08:37 10° S 19:10:43 17° SE 19:10:44 17° SE
Cosmos 1825 3.3 19:08:42 10° NNW 19:12:19 44° W 19:15:55 10° SSW
IRIDIUM 114 4.4 19:08:37 10° SSE 19:13:43 60° E 19:18:52 10° N
Cosmos 2227 Rocket 2.8 19:09:29 10° SSE 19:14:30 33° ESE 19:19:31 10° NE
Lacrosse 5 rocket 3.1 19:10:56 10° WNW 19:14:38 30° N 19:18:31 10° ENE
Cosmos 2026 Rocket 4.5 19:08:54 10° NNW 19:14:53 62° W 19:20:54 10° S
BREEZE-M DEB (TANK) 3.8 19:10:37 10° WSW 19:15:10 60° S 19:20:51 10° E
Cosmos 2084 Rocket 4.3 19:12:27 10° S 19:15:40 24° ESE 19:18:55 10° ENE
Cosmos 482 Debris 3.8 19:13:46 10° W 19:16:07 41° N 19:17:31 15° ENE
Landsat 7 4.1 19:12:08 13° SE 19:16:12 53° ENE 19:20:51 10° N
Cosmos 909 Rocket 4.0 19:13:33 10° SSW 19:19:51 84° SE 19:26:25 10° NE
Cosmos 1818 3.7 19:14:46 10° SW 19:20:13 80° NW 19:25:44 10° NE
Cosmos 1140 Rocket 3.8 19:15:42 10° S 19:20:31 43° ESE 19:25:21 10° NE
Cosmos 2297 Rocket 2.4 19:15:52 10° S 19:21:13 47° ESE 19:26:38 10° NE
IRIDIUM 103 4.3 19:17:40 10° S 19:22:51 71° E 19:28:04 10° N
USA 186 4.5 19:21:30 10° SW 19:23:55 19° W 19:26:15 10° NW
SJ-6B 4.4 19:21:19 10° SSW 19:24:40 31° W 19:28:05 10° NNW
Cosmos-2242 3.5 19:24:16 15° SSE 19:27:31 40° E 19:31:33 10° NNE
Cosmos 44 4.0 19:22:35 10° SW 19:27:44 63° NW 19:33:08 10° NE
Cosmos 2333 Rocket 4.3 19:23:48 10° NW 19:28:17 24° WSW 19:32:43 10° SSW
Cosmos 2219 3.4 19:23:23 10° S 19:28:44 48° ESE 19:34:08 10° NE
Cosmos 2151 2.9 19:27:40 10° N 19:32:00 74° E 19:35:15 17° SSE
Genesis I 3.2 19:28:07 10° NW 19:32:08 87° NE 19:34:32 24° SE
Spot 2 Rocket 4.0 19:29:22 19° SE 19:32:40 44° ENE 19:37:27 10° N
Cosmos 2266 Rocket 4.1 19:26:45 10° N 19:33:07 64° ENE 19:38:12 16° SSE
Cosmos 1633 2.4 19:31:52 10° N 19:35:30 88° E 19:37:56 19° S
Abrixas rocket 2.9 19:36:00 10° WSW 19:36:37 18° WSW 19:36:37 18° WSW
Cosmos 44 Rocket 4.5 19:37:36 22° SE 19:38:34 23° ESE 19:42:36 10° ENE
IRIDIUM 106 4.4 19:35:55 10° S 19:41:07 83° W 19:46:24 10° N
ARIANE 5 R/B 3.0 19:41:00 24° SE 19:43:16 47° ENE 19:47:28 10° N
Cosmos 1076 Rocket 4.5 19:40:49 10° NNW 19:44:59 46° W 19:49:07 10° SSW
Meteor 1-4 Rocket 3.6 19:44:56 26° E 19:45:00 26° E 19:47:59 10° NE
COSMOS 2455 3.5 19:40:27 11° S 19:45:33 33° ESE 19:50:52 10° NE
ATLAS 2AS CENTAUR R/B 4.0 19:39:37 10° WSW 19:47:15 49° NW 19:54:40 10° NE
USA 245 3.0 19:46:18 31° SE 19:47:45 59° ENE 19:50:47 10° N
CZ-2C R/B 3.6 19:45:56 10° NNE 19:50:22 65° ESE 19:53:53 16° S
IGS 5A 3.7 19:47:41 17° S 19:50:48 66° WSW 19:54:57 10° NNW
Cosmos 2221 4.1 19:52:59 19° E 19:52:59 19° E 19:55:59 10° NE
Cosmos 1980 4.5 19:47:58 10° NW 19:53:26 48° WSW 19:58:00 14° S
SL-16 R/B 2.3 19:48:07 10° NNW 19:53:49 68° ENE 19:56:59 27° SE
Cosmos 389 Rocket 4.0 19:53:53 10° SW 19:57:12 37° WNW 20:00:34 10° N
Timation 2 Rocket 4.0 19:51:53 10° SSW 19:58:23 70° ESE 20:04:40 10° NE
SL-4 R/B 2.5 19:55:33 10° SW 19:59:46 45° SSE 20:03:01 17° E
Cosmos 1190 Rocket 3.9 19:55:39 10° SSW 20:00:53 80° ESE 20:06:08 10° NNE
Cosmos 1763 Rocket 3.9 19:56:51 10° NNW 20:01:45 46° ENE 20:03:54 29° ESE
Cosmos 1812 Rocket 4.5 20:01:21 10° SSW 20:05:40 50° WNW 20:10:03 10° N
SPOT 1/Viking Rocket 3.6 20:04:57 23° S 20:08:15 79° WSW 20:13:31 10° NNW
Cosmos 1862 4.2 20:06:53 10° N 20:10:30 32° ENE 20:10:58 31° E
NOSS 3-1 (C) 4.2 20:04:30 10° NW 20:11:40 65° NE 20:16:51 25° ESE
Cosmos 540 Rocket 4.4 20:07:48 10° N 20:12:29 34° NE 20:14:23 26° E
ATLAS 5 CENTAUR R/B 4.5 20:09:43 10° NW 20:12:48 17° N 20:16:13 10° NE
FALCON 9 DEB 4.3 20:10:11 10° SW 20:11:42 26° SW 20:11:42 26° SW
FALCON 9 DEB 3.9 20:11:38 10° W 20:15:00 51° N 20:16:59 22° ENE
Cosmos 1766 Rocket 3.4 20:12:53 10° N 20:17:15 90° W 20:18:49 39° S
Cosmos 2344 4.2 20:10:39 10° WSW 20:17:57 59° NW 20:26:13 10° NE
CARTOSAT-1 3.5 20:16:55 40° SSE 20:18:26 87° E 20:22:48 10° NNW
Cosmos 676 Rocket 3.9 20:15:18 19° S 20:19:03 70° ESE 20:24:13 10° NNE
Cosmos 1943 4.3 20:15:22 10° NNW 20:20:28 34° NE 20:22:59 23° E
Meteor 2-3 Rocket 4.3 20:15:47 10° NNW 20:21:24 56° W 20:25:24 19° SSW
Terra 2.1 20:20:42 39° ESE 20:22:05 53° ENE 20:26:45 10° N
USA 215 3.2 20:18:58 30° SE 20:22:26 75° SW 20:29:00 10° WNW
Okean 3 Rocket 3.6 20:18:25 10° NNW 20:22:59 80° W 20:24:41 38° S
JB-3 4.3 20:20:31 10° NNE 20:24:37 65° E 20:25:19 53° SSE
Resurs 01 Rocket 3.4 20:22:49 11° SSW 20:26:29 27° W 20:30:18 10° NW
SPOT 5 2.7 20:25:52 44° SSE 20:27:20 79° ENE 20:32:11 10° NNW
Meteor 1-27 4.3 20:22:43 16° SSW 20:27:23 84° WNW 20:33:16 10° N
TSX-5 4.5 20:29:25 42° E 20:29:25 42° E 20:32:47 10° NE
ERS-1 Rocket 2.9 20:34:05 41° S 20:35:52 85° WSW 20:40:55 10° NNW
H-2A R/B 3.7 20:33:47 10° NNE 20:37:50 51° E 20:37:50 51° E
Aureole 1 Rocket 4.1 20:40:23 37° E 20:40:23 37° E 20:44:29 10° NE
Cosmos 2237 Rocket 4.0 20:36:46 10° NW 20:41:05 23° WSW 20:44:53 12° SSW
Cosmos 1606 4.3 20:47:31 23° ENE 20:47:31 23° ENE 20:49:30 10° NNE
Cosmos 2263 Rocket 2.9 20:51:48 33° E 20:51:48 33° E 20:56:10 10° NE
Lacrosse 5 rocket 2.4 20:50:26 10° NW 20:54:34 44° NNE 20:56:01 32° ENE
Cosmos 2084 Rocket 4.1 20:50:57 10° WSW 20:54:51 52° NW 20:58:52 10° NE
SeaSat 1 4.1 20:52:27 10° NE 20:54:45 20° ENE 20:54:45 20° ENE
Cosmos 1869 4.4 20:55:43 29° SW 20:57:12 42° WNW 21:00:58 10° N
Cosmos 2082 3.7 20:53:32 19° SSW 20:57:38 81° WNW 21:03:18 10° NNE
Cosmos 2227 Rocket 3.1 20:52:54 10° SW 20:58:23 48° NW 21:03:53 10° NNE
Cosmos 921 Rocket 3.3 20:56:01 10° NNW 21:00:21 52° ENE 21:00:29 51° ENE
Cosmos 1741 Rocket 4.0 21:01:00 59° SE 21:01:33 63° ESE 21:06:46 10° NNE
Cosmos 1842 Rocket 3.4 21:03:29 76° SSW 21:03:51 89° WNW 21:08:21 10° N
Cosmos 1850 Rocket 3.9 21:04:36 63° SSE 21:05:12 70° ESE 21:10:27 10° NNE
Cosmos 2297 Rocket 3.7 21:00:13 10° WSW 21:05:25 37° NW 21:10:40 10° NNE
Cosmos 1603 3.8 21:02:39 10° NNW 21:08:23 69° ENE 21:09:37 53° ESE
Cosmos 1408 Rocket 4.4 21:13:47 10° NNW 21:17:51 41° W 21:18:23 40° WSW
SL-08 ROCKET BODY 4.4 21:12:06 10° NNW 21:18:11 78° W 21:19:44 51° S
Meteor 2-2 Rocket 4.3 21:16:20 42° SSW 21:18:21 75° WNW 21:24:04 10° N
Cosmos 44 Rocket 3.6 21:16:06 20° SW 21:19:39 69° NW 21:24:54 10° NE
USA 229 DEB 3.8 21:13:13 10° NW 21:20:31 88° SW 21:23:02 47° SE
USA 229 3.8 21:13:18 10° NW 21:20:37 89° SW 21:23:08 47° SE
Cosmos 2208 Rocket 4.1 21:19:09 10° NNW 21:24:29 67° ENE 21:25:06 62° ESE
Cosmos 1805 Rocket 3.7 21:21:00 10° N 21:24:58 67° NE 21:24:58 67° NE
Cosmos 1745 Rocket 3.9 21:20:16 10° N 21:26:38 88° E 21:28:01 58° SSE
Sich 1 3.4 21:23:23 10° N 21:27:04 54° NE 21:27:04 54° NE
Cosmos 2221 3.2 21:29:48 46° W 21:30:11 48° WNW 21:34:21 10° N
COSMOS 2455 3.4 21:25:19 10° SW 21:31:14 57° NW 21:37:12 10° NNE
Cosmos 1709 Rocket 4.1 21:25:48 10° N 21:31:58 60° ENE 21:32:58 53° ESE
Cosmos 841 Rocket 3.5 21:29:34 10° NNW 21:34:45 65° WSW 21:35:03 64° SW
Cosmos 1743 Rocket 4.1 21:31:43 10° NNW 21:35:47 50° W 21:35:47 50° W
SL-16 R/B 3.8 21:33:03 10° NW 21:37:26 23° WSW 21:38:53 21° WSW
Cosmos 1437 Rocket 4.2 21:39:34 31° NNE 21:39:34 31° NNE 21:41:44 10° NNE
NOSS 3-1 (A) 4.0 21:31:02 10° NW 21:38:27 80° SW 21:41:02 49° SSE
SL-4 R/B 2.5 21:34:46 10° W 21:38:43 65° WNW 21:38:43 65° WNW
S3M 3.9 21:40:09 58° S 21:41:33 89° E 21:48:00 10° N
Cosmos 883 Rocket 4.5 21:42:34 59° SE 21:43:14 63° E 21:49:27 10° NNE
Meteor 1-25 Rocket 4.2 21:38:09 10° N 21:43:54 74° ENE 21:44:28 68° ESE
Cosmos 1633 Rocket 3.9 21:42:31 10° N 21:46:02 43° NE 21:46:02 43° NE
Cosmos 1814 Rocket 4.0 21:43:17 10° NNW 21:48:36 71° WSW 21:48:41 71° WSW
Cosmos 540 Rocket 4.2 21:49:23 10° NW 21:54:09 40° WSW 21:54:13 40° WSW
Cosmos 2227 4.1 21:54:22 75° SSW 21:54:54 89° ESE 22:00:42 10° NNE
SL-24 DEB 4.4 21:55:27 69° NNE 21:55:27 69° NNE 21:59:35 10° N
Cosmos 1666 Rocket 4.0 21:52:05 10° N 21:55:52 59° NNE 21:55:52 59° NNE
Meteor 1-20 Rocket 4.1 21:52:04 10° NNW 21:57:55 84° W 21:58:20 77° SSW
ATLAS 5 CENTAUR R/B 4.0 21:54:55 10° NNW 21:59:08 25° NNE 22:03:57 10° E
Terra 3.6 21:59:35 22° WSW 22:00:10 22° W 22:03:52 10° NW
Cosmos 1943 3.5 21:59:18 10° NW 22:04:45 52° WSW 22:04:47 52° WSW
USA 215 4.5 22:06:18 25° SW 22:06:18 25° SW 22:11:25 10° WNW
CZ-4C R/B 4.4 22:01:09 10° NW 22:06:44 29° NNE 22:13:13 10° ENE
Meteor 1-26 Rocket 4.3 22:06:52 63° E 22:06:56 63° E 22:12:41 10° NNE
NOSS 2-2 (E) 4.5 22:06:19 10° NW 22:11:31 70° NE 22:12:50 55° ESE
ALOS 2 3.1 22:14:51 57° N 22:14:51 57° N 22:18:26 10° NNW
Cosmos 1151 Rocket 3.9 22:21:57 47° NNE 22:21:57 47° NNE 22:25:06 10° NNE
Cosmos 1782 4.1 22:35:13 40° N 22:35:13 40° N 22:37:53 10° N
Lacrosse 5 rocket 3.2 22:29:34 10° WNW 22:31:37 27° WNW 22:31:37 27° WNW
SeaSat 1 2.7 22:29:25 10° NNE 22:34:19 61° NW 22:34:31 60° WNW
Cosmos 2263 Rocket 2.9 22:33:26 37° W 22:35:00 47° NW 22:40:23 10° NNE
Cosmos 2154 Rocket 4.5 22:30:01 10° N 22:36:13 50° ENE 22:37:12 46° ESE
Iridium 4 Rocket 3.6 22:41:38 68° NW 22:41:38 68° NW 22:46:42 10° N
Cosmos 1844 Rocket 3.0 22:48:08 55° E 22:48:08 55° E 22:52:56 10° NE
Cosmos 2184 Rocket 3.9 22:41:15 10° N 22:47:38 81° E 22:48:10 74° SE
USA 281 3.5 22:47:12 46° ESE 22:48:59 62° ENE 22:55:29 10° NNW
Cosmos 2315 Rocket 4.3 22:48:28 51° WSW 22:49:30 57° WNW 22:55:47 10° N
Meteor 1-10 Rocket 4.5 22:57:24 56° E 22:57:24 56° E 23:02:35 10° NNE
SJ 16-02 3.9 23:02:50 12° E 23:02:50 12° E 23:03:48 10° ENE
Cosmos 1515 Rocket 4.3 23:02:54 52° N 23:02:54 52° N 23:06:20 10° N
Cosmos 968 Rocket 3.7 23:03:16 66° NW 23:03:16 66° NW 23:08:25 10° NNE
Thor Agena Rocket 3.6 22:59:20 10° NNE 23:04:04 77° NNE 23:04:04 77° NNE
Cosmos 2082 Rocket 4.2 23:01:41 10° NNW 23:06:11 24° NE 23:10:40 10° E
Cosmos 773 Rocket 4.2 23:04:04 10° NNW 23:09:20 67° ENE 23:09:20 67° ENE
NOSS 2-2 (D) 4.4 23:05:06 10° NW 23:10:03 67° WSW 23:10:03 67° WSW
Cosmos 1833 Rocket 3.8 23:05:23 10° NNW 23:10:41 39° NE 23:12:53 28° E
Cosmos 1271 Rocket 4.5 23:14:03 30° NE 23:14:03 30° NE 23:16:20 10° NNE
CZ-2D R/B 4.3 23:09:28 10° NE 23:12:33 15° E 23:13:28 14° E
Meteor 1-5 Rocket 4.3 23:07:33 10° NNW 23:12:58 63° W 23:12:58 63° W
Cosmos 2074 Rocket 4.0 23:09:00 10° NNW 23:15:12 65° W 23:15:33 63° WSW
BREEZE-M DEB (TANK) 4.2 23:02:38 10° W 23:18:41 90° SSW 23:21:35 26° E
Meteor 2-6 Rocket 4.1 23:20:37 75° WNW 23:20:37 75° WNW 23:25:53 10° N
USA 305 4.3 23:25:11 34° NE 23:25:11 34° NE 23:27:42 10° ENE
EO 1 Delta rocket 4.5 23:32:16 48° ENE 23:32:17 48° ENE 23:36:46 10° N
Cosmos 1610 Rocket 4.4 23:26:32 10° NNW 23:32:45 72° W 23:33:07 70° WSW
ATLAS 2AS CENTAUR R/B 4.5 23:26:27 10° NW 23:33:16 33° NNE 23:39:41 10° E
Cosmos 2278 Rocket 3.5 23:33:51 28° ESE 23:33:51 28° ESE 23:38:32 10° NE
Nadezhda 1 Rocket 3.9 23:40:22 67° SW 23:41:07 75° W 23:47:32 10° N
USA 306 3.8 23:42:22 46° NE 23:42:22 46° NE 23:45:40 10° ENE
Cosmos 1538 Rocket 4.1 23:36:23 10° NNW 23:41:47 69° ENE 23:42:11 66° E
ATLAS 5 CENTAUR R/B 2.4 23:39:11 10° NW 23:44:35 71° NE 23:46:48 41° ESE
Cosmos 2218 Rocket 4.4 23:41:18 10° N 23:47:23 57° ENE 23:49:00 44° SE
PSLV R/B 4.2 23:48:51 10° N 23:53:03 55° NW 23:53:03 55° NW
